Weather History for Panama City, FL

Change the Weather History Date:

Tuesday, November 27, 2012

  Actual Average Record
Temperature  
Mean Temperature 60 °F -  
Max Temperature 63 °F - 77 °F (2011)
Min Temperature 56 °F - 33 °F (2013)
Degree Days  
Heating Degree Days 5    
Cooling Degree Days 0    
Growing Degree Days 10 (Base 50)    
Moisture  
Dew Point 57 °F    
Average Humidity 90    
Maximum Humidity 100    
Minimum Humidity 80    
Precipitation  
Precipitation 0.46 in - 0.80 in (2011)
Month to date precipitation  
Year to date precipitation  
Sea Level Pressure  
Sea Level Pressure 30.18 in    
Wind  
Wind Speed 4 mph (North)    
Max Wind Speed 18 mph    
Max Gust Speed 22 mph    
Visibility 8 miles    
Events Rain    
T = Trace of Precipitation, MM = Missing Value Source: NWS Daily Summary

Daily Weather History Graph

Daily Weather History Graph

Search for Another Location

Airport:

Trip Planner

Search our weather history database for the weather conditions in past years. The results will help you decide how hot, cold, wet, or windy it might be!

Date:

Astronomy

Nov. 27, 2012 Rise Set
Actual Time 7:19 AM EST 5:42 PM EST
Civil Twilight 6:53 AM EST 6:08 PM EST
Nautical Twilight 6:23 AM EST 6:37 PM EST
Astronomical Twilight 5:54 AM EST 7:06 PM EST
Moon 5:12 PM EST 6:25 AM EST
Length of Visible Light 11h 15m
Length of Day
10h 23m
Waxing Gibbous, 99% of the Moon is Illuminated
Nov 27
Waxing Gibbous
Nov 28
Full
Dec 6
Last Quarter
Dec 13
New
Dec 20
First Quarter

Hourly Weather History & Observations

Time (EST) Temp. Dew Point Humidity Pressure Visibility Wind Dir Wind Speed Gust Speed Precip Events Conditions
12:53 AM 57.0 °F 51.1 °F 81% 30.19 in 10.0 mi Calm Calm - N/A   Overcast
1:53 AM 57.0 °F 52.0 °F 83% 30.19 in 10.0 mi NNE 3.5 mph - N/A   Overcast
2:53 AM 57.0 °F 53.1 °F 87% 30.19 in 10.0 mi Calm Calm - N/A   Overcast
3:53 AM 57.9 °F 53.1 °F 84% 30.17 in 10.0 mi Calm Calm - 0.00 in   Overcast
4:53 AM 57.0 °F 53.1 °F 87% 30.16 in 10.0 mi Calm Calm - N/A   Overcast
5:53 AM 57.0 °F 53.1 °F 87% 30.16 in 10.0 mi ESE 4.6 mph - N/A   Overcast
6:53 AM 57.0 °F 54.0 °F 89% 30.17 in 5.0 mi NE 3.5 mph - 0.04 in Rain Rain
7:53 AM 57.0 °F 54.0 °F 89% 30.18 in 5.0 mi ENE 3.5 mph - 0.06 in Rain Rain
8:53 AM 57.0 °F 55.0 °F 93% 30.19 in 7.0 mi East 3.5 mph - N/A Rain Light Rain
9:53 AM 57.0 °F 55.9 °F 96% 30.20 in 5.0 mi East 3.5 mph - 0.01 in Rain Rain
10:53 AM 61.0 °F 55.9 °F 83% 30.18 in 10.0 mi ENE 3.5 mph - 0.00 in   Overcast
11:53 AM 61.0 °F 57.0 °F 87% 30.18 in 10.0 mi East 4.6 mph - 0.00 in   Overcast
12:53 PM 61.0 °F 57.0 °F 87% 30.16 in 7.0 mi East 3.5 mph - 0.00 in Rain Light Rain
1:46 PM 60.8 °F 57.2 °F 88% 30.12 in 2.5 mi NW 18.4 mph 21.9 mph 0.15 in Rain Heavy Rain
1:53 PM 61.0 °F 59.0 °F 93% 30.16 in 2.5 mi NW 15.0 mph - 0.30 in Rain Heavy Rain
1:55 PM 60.8 °F 59.0 °F 94% 30.12 in 2.0 mi NW 12.7 mph - 0.01 in Rain Heavy Rain
2:53 PM 62.6 °F 60.8 °F 94% 30.11 in 2.0 mi North 6.9 mph - N/A Rain Light Rain
3:00 PM 62.6 °F 60.8 °F 94% 30.11 in 10.0 mi North 5.8 mph - 0.00 in Rain Light Rain
3:53 PM 62.1 °F 60.1 °F 93% 30.14 in 9.0 mi ENE 3.5 mph - 0.01 in Rain Light Rain
4:08 PM 62.6 °F 60.8 °F 94% 30.10 in 9.0 mi Calm Calm - 0.00 in Rain Light Rain
4:53 PM 62.1 °F 60.1 °F 93% 30.13 in 10.0 mi Calm Calm - 0.00 in Rain Light Rain
5:53 PM 61.0 °F 59.0 °F 93% 30.13 in 10.0 mi Calm Calm - 0.00 in   Mostly Cloudy
6:53 PM 61.0 °F 59.0 °F 93% 30.19 in 10.0 mi NW 6.9 mph - N/A   Mostly Cloudy
7:53 PM 57.0 °F 55.9 °F 96% 30.21 in 7.0 mi NW 4.6 mph - N/A   Mostly Cloudy
8:00 PM 59.0 °F 57.2 °F 94% 30.18 in 8.0 mi NW 4.6 mph - N/A   Mostly Cloudy
8:42 PM 60.8 °F 59.0 °F 94% 30.19 in 9.0 mi NW 5.8 mph - N/A   Mostly Cloudy
8:53 PM 60.1 °F 57.9 °F 93% 30.23 in 9.0 mi NW 9.2 mph - N/A   Mostly Cloudy
9:31 PM 60.8 °F 59.0 °F 94% 30.19 in 9.0 mi NNW 4.6 mph - N/A   Overcast
9:41 PM 60.8 °F 59.0 °F 94% 30.20 in 8.0 mi NNW 3.5 mph - N/A   Overcast
9:50 PM 60.8 °F 57.2 °F 88% 30.20 in 9.0 mi North 6.9 mph - N/A   Overcast
9:53 PM 60.1 °F 57.9 °F 93% 30.23 in 10.0 mi North 6.9 mph - N/A   Overcast
10:39 PM 59.0 °F 57.2 °F 94% 30.21 in 10.0 mi NNW 4.6 mph - N/A   Mostly Cloudy
10:53 PM 59.0 °F 57.0 °F 93% 30.25 in 9.0 mi NW 4.6 mph - N/A   Overcast
11:53 PM 57.9 °F 57.0 °F 97% 30.25 in 8.0 mi NW 4.6 mph - N/A   Overcast